N98189 KSAC-KOAK

Flight info

Callsign N98189
Flight time 0h 27m
Altitude 7000
Route SAC V334 SUNOL
Aircraft DA62/L-SDFGRY/C

Departure

Time 2026-04-16 04:24
Airport Sacramento Executive Airport (KSAC)

Arrival

Time 2026-04-16 04:52
Airport San Francisco Bay Oakland International Airport (KOAK)
Time Latitude Longitude Altitude Speed Heading
2026-04-16 04:13 38.51311 -121.49714 23 ft 0 kts 218°
2026-04-16 04:20 38.51321 -121.49727 23 ft 5 kts 36°
2026-04-16 04:20 38.51342 -121.49660 23 ft 11 kts 90°
2026-04-16 04:20 38.51340 -121.49565 23 ft 11 kts 81°
2026-04-16 04:21 38.51393 -121.49520 25 ft 9 kts 28°
2026-04-16 04:21 38.51442 -121.49478 27 ft 9 kts 34°
2026-04-16 04:21 38.51509 -121.49420 26 ft 13 kts 33°
2026-04-16 04:21 38.51581 -121.49361 28 ft 13 kts 33°
2026-04-16 04:22 38.51660 -121.49295 30 ft 15 kts 32°
2026-04-16 04:22 38.51766 -121.49207 28 ft 19 kts 34°
2026-04-16 04:22 38.51871 -121.49121 29 ft 17 kts 33°
2026-04-16 04:22 38.51919 -121.49042 28 ft 4 kts 103°
2026-04-16 04:23 38.51918 -121.49041 28 ft 0 kts 103°
2026-04-16 04:23 38.51915 -121.49023 27 ft 9 kts 105°
2026-04-16 04:23 38.51890 -121.48949 27 ft 9 kts 167°
2026-04-16 04:23 38.51825 -121.48992 29 ft 14 kts 213°
2026-04-16 04:24 38.51635 -121.49149 28 ft 65 kts 213°
2026-04-16 04:24 38.51132 -121.49566 176 ft 98 kts 212°
2026-04-16 04:24 38.50536 -121.50040 582 ft 101 kts 212°
2026-04-16 04:24 38.49857 -121.50168 978 ft 108 kts 163°
2026-04-16 04:25 38.49145 -121.49785 1354 ft 113 kts 164°
2026-04-16 04:25 38.48409 -121.49395 1776 ft 117 kts 163°
2026-04-16 04:25 38.47668 -121.49450 2167 ft 107 kts 226°
2026-04-16 04:25 38.47085 -121.50053 2599 ft 114 kts 201°
2026-04-16 04:26 38.46341 -121.50368 3007 ft 116 kts 207°
2026-04-16 04:26 38.45580 -121.50731 3466 ft 117 kts 204°
2026-04-16 04:26 38.44813 -121.51089 3921 ft 117 kts 204°
2026-04-16 04:26 38.44048 -121.51449 4381 ft 117 kts 204°
2026-04-16 04:27 38.43281 -121.51805 4825 ft 117 kts 202°
2026-04-16 04:27 38.42512 -121.52167 5250 ft 118 kts 203°
2026-04-16 04:27 38.41738 -121.52529 5697 ft 119 kts 205°
2026-04-16 04:27 38.40945 -121.52900 6000 ft 132 kts 204°
2026-04-16 04:28 38.39992 -121.53349 6011 ft 158 kts 204°
2026-04-16 04:28 38.38911 -121.53855 6010 ft 173 kts 203°
2026-04-16 04:28 38.37752 -121.54394 6007 ft 180 kts 203°
2026-04-16 04:28 38.36558 -121.54948 6007 ft 185 kts 204°
2026-04-16 04:29 38.35337 -121.55519 6006 ft 189 kts 203°
2026-04-16 04:29 38.34102 -121.56093 6006 ft 188 kts 202°
2026-04-16 04:29 38.32879 -121.56664 6001 ft 188 kts 202°
2026-04-16 04:29 38.31636 -121.57240 6003 ft 190 kts 203°
2026-04-16 04:30 38.30398 -121.57822 6001 ft 188 kts 203°
2026-04-16 04:30 38.29170 -121.58391 5997 ft 188 kts 203°
2026-04-16 04:30 38.27946 -121.58963 5999 ft 188 kts 202°
2026-04-16 04:30 38.26717 -121.59531 6002 ft 188 kts 202°
2026-04-16 04:31 38.25483 -121.60107 5992 ft 189 kts 203°
2026-04-16 04:31 38.24254 -121.60681 5993 ft 187 kts 202°
2026-04-16 04:31 38.23028 -121.61245 5992 ft 189 kts 202°
2026-04-16 04:31 38.21795 -121.61819 6000 ft 189 kts 203°
2026-04-16 04:32 38.20554 -121.62403 5998 ft 191 kts 203°
2026-04-16 04:32 38.19300 -121.62969 5996 ft 191 kts 199°
2026-04-16 04:32 38.18001 -121.63364 5994 ft 192 kts 195°
2026-04-16 04:32 38.16706 -121.63767 6003 ft 191 kts 196°
2026-04-16 04:33 38.15406 -121.64170 6000 ft 193 kts 196°
2026-04-16 04:33 38.14105 -121.64574 5997 ft 193 kts 196°
2026-04-16 04:33 38.12797 -121.64978 6008 ft 193 kts 197°
2026-04-16 04:33 38.11493 -121.65381 6003 ft 193 kts 196°
2026-04-16 04:34 38.10181 -121.65786 6005 ft 195 kts 195°
2026-04-16 04:34 38.08869 -121.66191 5996 ft 193 kts 196°
2026-04-16 04:34 38.07569 -121.66595 6005 ft 191 kts 196°
2026-04-16 04:34 38.06273 -121.66992 6007 ft 193 kts 196°
2026-04-16 04:35 38.04986 -121.67390 6002 ft 193 kts 196°
2026-04-16 04:35 38.03674 -121.67797 6007 ft 194 kts 195°
2026-04-16 04:35 38.02361 -121.68202 6024 ft 194 kts 196°
2026-04-16 04:35 38.01053 -121.68605 6020 ft 193 kts 196°
2026-04-16 04:36 37.99741 -121.69010 6023 ft 194 kts 196°
2026-04-16 04:36 37.98431 -121.69414 6023 ft 193 kts 196°
2026-04-16 04:36 37.97124 -121.69816 6022 ft 193 kts 195°
2026-04-16 04:36 37.95823 -121.70217 6022 ft 192 kts 195°
2026-04-16 04:37 37.94522 -121.70619 6024 ft 192 kts 196°
2026-04-16 04:37 37.93220 -121.71021 6030 ft 193 kts 196°
2026-04-16 04:37 37.91919 -121.71420 6033 ft 192 kts 196°
2026-04-16 04:37 37.90618 -121.71820 6035 ft 192 kts 196°
2026-04-16 04:38 37.89316 -121.72221 6035 ft 192 kts 195°
2026-04-16 04:38 37.88018 -121.72620 6038 ft 192 kts 196°
2026-04-16 04:38 37.86717 -121.73020 6038 ft 193 kts 196°
2026-04-16 04:38 37.85416 -121.73420 6037 ft 193 kts 196°
2026-04-16 04:39 37.84115 -121.73818 6042 ft 192 kts 195°
2026-04-16 04:39 37.82821 -121.74216 6046 ft 192 kts 196°
2026-04-16 04:39 37.81501 -121.74623 6047 ft 193 kts 196°
2026-04-16 04:39 37.80201 -121.75021 6048 ft 192 kts 195°
2026-04-16 04:40 37.78918 -121.75413 6044 ft 192 kts 195°
2026-04-16 04:40 37.77618 -121.75812 6047 ft 193 kts 196°
2026-04-16 04:40 37.76315 -121.76211 6050 ft 192 kts 195°
2026-04-16 04:40 37.75012 -121.76609 6049 ft 193 kts 196°
2026-04-16 04:41 37.73707 -121.77011 6051 ft 193 kts 195°
2026-04-16 04:41 37.72398 -121.77410 6050 ft 193 kts 195°
2026-04-16 04:41 37.71093 -121.77808 6047 ft 193 kts 195°
2026-04-16 04:41 37.69789 -121.78208 6049 ft 193 kts 195°
2026-04-16 04:42 37.68482 -121.78607 6045 ft 193 kts 196°
2026-04-16 04:42 37.67178 -121.79005 6050 ft 193 kts 195°
2026-04-16 04:42 37.65866 -121.79406 6050 ft 194 kts 195°
2026-04-16 04:42 37.64686 -121.80077 5961 ft 184 kts 225°
2026-04-16 04:43 37.64055 -121.81446 5720 ft 181 kts 251°
2026-04-16 04:43 37.63628 -121.82936 5510 ft 180 kts 252°
2026-04-16 04:43 37.63213 -121.84424 5312 ft 179 kts 253°
2026-04-16 04:43 37.62804 -121.85910 5104 ft 179 kts 252°
2026-04-16 04:44 37.62530 -121.86912 4967 ft 178 kts 253°
2026-04-16 04:44 37.62455 -121.88431 4747 ft 175 kts 281°
2026-04-16 04:44 37.62695 -121.89929 4515 ft 174 kts 282°
2026-04-16 04:44 37.62950 -121.91422 4310 ft 173 kts 283°
2026-04-16 04:45 37.63201 -121.92897 4130 ft 172 kts 282°
2026-04-16 04:45 37.63445 -121.94352 4059 ft 166 kts 282°
2026-04-16 04:45 37.63686 -121.95748 4049 ft 160 kts 283°
2026-04-16 04:45 37.63916 -121.97102 4044 ft 155 kts 283°
2026-04-16 04:46 37.64141 -121.98435 3774 ft 156 kts 283°
2026-04-16 04:46 37.64369 -121.99754 3524 ft 155 kts 284°
2026-04-16 04:46 37.64746 -122.01031 3253 ft 154 kts 292°
2026-04-16 04:46 37.65158 -122.02248 3169 ft 146 kts 293°
2026-04-16 04:47 37.65548 -122.03392 3160 ft 138 kts 293°
2026-04-16 04:47 37.65922 -122.04488 3157 ft 134 kts 293°
2026-04-16 04:47 37.66405 -122.05472 3156 ft 132 kts 308°
2026-04-16 04:47 37.66974 -122.06379 3151 ft 125 kts 307°
2026-04-16 04:48 37.67468 -122.07234 3154 ft 110 kts 304°
2026-04-16 04:48 37.67904 -122.08039 2863 ft 114 kts 302°
2026-04-16 04:48 37.68329 -122.08869 2579 ft 112 kts 301°
2026-04-16 04:48 37.68741 -122.09695 2198 ft 112 kts 301°
2026-04-16 04:49 37.69166 -122.10522 1799 ft 112 kts 299°
2026-04-16 04:49 37.69516 -122.11388 1451 ft 108 kts 294°
2026-04-16 04:49 37.69840 -122.12281 1253 ft 119 kts 292°
2026-04-16 04:49 37.70168 -122.13260 1135 ft 122 kts 291°
2026-04-16 04:50 37.70491 -122.14265 1059 ft 123 kts 290°
2026-04-16 04:50 37.70810 -122.15249 1092 ft 115 kts 291°
2026-04-16 04:50 37.71106 -122.16224 765 ft 119 kts 290°
2026-04-16 04:50 37.71411 -122.17187 540 ft 117 kts 291°
2026-04-16 04:51 37.71701 -122.18120 401 ft 109 kts 290°
2026-04-16 04:51 37.71985 -122.18938 278 ft 97 kts 290°
2026-04-16 04:51 37.72222 -122.19669 136 ft 86 kts 289°
2026-04-16 04:51 37.72442 -122.20351 45 ft 77 kts 289°
2026-04-16 04:52 37.72596 -122.20834 11 ft 31 kts 293°
2026-04-16 04:52 37.72681 -122.20951 13 ft 7 kts 339°
2026-04-16 04:52 37.72727 -122.20973 12 ft 7 kts 338°
2026-04-16 04:52 37.72741 -122.20982 12 ft 0 kts 326°